Year,Month,Day,Hour,Minute,Value (Times are PST for temperature in C)
2013,08,02,10,12,14.20
2013,08,02,10,13,14.20
2013,08,02,10,14,14.30
2013,08,02,10,15,14.30
2013,08,02,10,16,14.30
2013,08,02,10,17,14.30
2013,08,02,10,18,14.30
2013,08,02,10,19,14.40
2013,08,02,10,20,14.40
2013,08,02,10,21,14.40
2013,08,02,10,22,14.40
2013,08,02,10,23,14.40
2013,08,02,10,24,14.40
2013,08,02,10,25,14.40
2013,08,02,10,26,14.50
2013,08,02,10,27,14.50
2013,08,02,10,28,14.50
2013,08,02,10,29,14.50
2013,08,02,10,30,14.50
2013,08,02,10,31,14.50
2013,08,02,10,32,14.50
2013,08,02,10,33,14.50
2013,08,02,10,34,14.50
2013,08,02,10,35,14.50
2013,08,02,10,36,14.50
2013,08,02,10,37,14.50
2013,08,02,10,38,14.50
2013,08,02,12,36,15.60
2013,08,02,12,37,15.60
2013,08,02,12,38,15.50
2013,08,02,12,39,15.60
2013,08,02,12,40,15.60
2013,08,02,12,41,15.60
2013,08,02,12,42,15.60
2013,08,02,12,43,15.70
2013,08,02,12,44,15.70
2013,08,02,12,45,15.70
2013,08,02,12,46,15.70
2013,08,02,12,47,15.70
2013,08,02,12,48,15.80
2013,08,02,12,49,15.80
2013,08,02,12,50,15.80
2013,08,02,12,51,15.80
2013,08,02,12,52,15.80
2013,08,02,12,53,15.80
2013,08,02,12,54,15.80
2013,08,02,12,55,15.80
2013,08,02,12,56,15.80
2013,08,02,12,57,15.80
2013,08,02,12,58,15.80
2013,08,02,12,59,15.80
2013,08,02,13,00,15.80
2013,08,02,13,01,15.80
2013,08,02,13,02,15.90
2013,08,02,13,03,15.90
2013,08,02,13,04,15.90
2013,08,02,13,05,15.90
2013,08,02,13,06,15.90
2013,08,02,13,07,15.90
2013,08,02,13,08,15.90
2013,08,02,13,09,15.90
2013,08,02,13,10,15.90
2013,08,02,13,11,15.90
2013,08,02,13,12,15.90
2013,08,02,13,13,15.90
2013,08,02,13,14,15.90
2013,08,02,13,15,15.90
2013,08,02,13,16,15.90
2013,08,02,13,17,15.90
2013,08,02,13,18,15.90
2013,08,02,13,19,15.90
2013,08,02,13,20,15.90
2013,08,02,13,21,15.90
2013,08,02,14,45,15.50
2013,08,02,14,46,15.40
2013,08,02,14,47,15.40
2013,08,02,14,48,15.40
2013,08,02,14,49,15.40
2013,08,02,14,50,15.30
2013,08,02,14,51,15.30
2013,08,02,14,52,15.30
2013,08,02,14,53,15.20
2013,08,02,14,54,15.20
2013,08,02,14,55,15.20
2013,08,02,14,56,15.20
2013,08,02,14,57,15.20
2013,08,02,14,58,15.20
2013,08,02,14,59,15.20
2013,08,02,15,00,15.20
2013,08,02,15,01,15.30
2013,08,02,15,02,15.30
2013,08,02,15,03,15.30
2013,08,02,15,04,15.30
2013,08,02,15,05,15.20
2013,08,02,15,06,15.20
2013,08,02,15,07,15.20
2013,08,02,15,08,15.10
2013,08,02,15,09,15.10
2013,08,02,15,10,15.10
2013,08,02,15,11,15.20
2013,08,02,15,12,15.20
2013,08,02,15,13,15.20
2013,08,02,15,14,15.20
2013,08,02,15,15,15.20
2013,08,02,15,16,15.20
2013,08,02,15,17,15.20
2013,08,02,15,18,15.20
2013,08,02,15,19,15.30
2013,08,02,15,20,15.30
2013,08,02,15,21,15.30
2013,08,02,15,22,15.30
2013,08,02,15,23,15.20
2013,08,02,15,24,15.20
2013,08,02,15,25,15.20
2013,08,02,15,26,15.10
2013,08,02,15,27,15.10
2013,08,02,15,28,15.00
2013,08,02,15,29,14.90
2013,08,02,15,30,14.90
2013,08,02,15,31,14.90
2013,08,02,15,32,15.00
2013,08,02,15,33,15.00
2013,08,02,15,34,15.00
2013,08,02,15,35,15.00
2013,08,02,15,36,15.00
2013,08,02,15,37,15.00
2013,08,02,15,38,15.00
2013,08,02,15,39,15.00
2013,08,02,15,40,15.00
2013,08,02,15,41,15.00
2013,08,02,15,42,15.00
2013,08,02,15,43,15.00
2013,08,02,15,44,15.00
